Regional Weather Roundup
Issued by NWS

Home | Current Version | Previous Version | Text Only | Print | Product List | Glossary Off
Versions: 1 2 3 4 5 6 7 8 9 10 11 12 13 14 15 16 17 18 19 20 21 22 23 24 25 26 27 28 29 30 31 32 33 34 35 36 37 38 39 40 41 42 43 44 45 46 47 48 49 50

000
ASUS43 KLMK 290910
RWRKY
KENTUCKY REGIONAL WEATHER ROUNDUP
NATIONAL WEATHER SERVICE LOUISVILLE KY
500 AM EDT FRI APR 29 2016

NOTE "FAIR" INDICATES FEW OR NO CLOUDS BELOW 12,000 FEET
WITH NO SIGNIFICANT WEATHER AND/OR OBSTRUCTIONS TO VISIBILITY.

KYZ001>023-026-027-061>063-070>075-291000-
WESTERN AND SOUTH CENTRAL KENTUCKY

CITY           SKY/WX    TMP DP  RH WIND       PRES   REMARKS
PADUCAH        CLOUDY    57  51  80 NE6       30.01R
HENDERSON      CLOUDY    57  48  72 N6        30.02R
OWENSBORO      CLEAR     58  53  83 N3        30.03R
HOPKINSVILLE   CLOUDY    59  51  75 N3        30.00R
BOWLING GREEN  CLOUDY    55  52  89 CALM      30.01R
GLASGOW        CLEAR     51  51 100 CALM      30.01R
$$

KYZ024-025-028>034-038-045-046-053-291000-
NORTH CENTRAL KENTUCKY

CITY           SKY/WX    TMP DP  RH WIND       PRES   REMARKS
LOUISVILLE/SDF MOCLDY    59  51  75 NW7       30.00R
LOUISVILLE/LOU CLEAR     58  50  75 NW3       30.01R
FORT KNOX      CLOUDY    51  49  94 NW2       29.99S
$$

KYZ035>037-039>044-047>052-055>060-089>105-291000-
NORTHEAST KENTUCKY

CITY           SKY/WX    TMP DP  RH WIND       PRES   REMARKS
LEXINGTON      CLEAR     56  49  77 CALM      30.00R
COVINGTON      CLOUDY    55  53  93 NW3       29.98R FOG
FRANKFORT      CLEAR     52  48  86 CALM      29.98R
$$

KYZ054-064>069-076>088-106>120-291000-
SOUTHEAST KENTUCKY

CITY           SKY/WX    TMP DP  RH WIND       PRES   REMARKS
JACKSON        CLEAR     60  48  64 W5        30.01R
LONDON         CLEAR     53  51  93 CALM      30.02R
SOMERSET       CLEAR     52  52 100 CALM      30.03S FOG
MIDDLESBORO    CLEAR     55  53  92 CALM      30.02S
MONTICELLO     MOSUNNY   52  51  97 CALM      30.04R
$$





USA.gov is the U.S. government's official web portal to all federal, state and local government web resources and services.